• In Belarus
  • List of Countries
  • For 7 days
  • Water Temperature
  • Satellite Maps
  • Weather Map
  • Weather Widgets
  • user-avatar
    Login

    Hourly Weather Ngozi

    Today, 13 December, Wednesday

    Time Temperature Precipitation Wind Pressure Humidity
    00:00 +15°C° 0.1 mm 0 mps 618 mmHg 92%
    01:00 +15°C° 0.1 mm 0 mps 618 mmHg 92%
    02:00 +14°C° 0 mm 0 mps 618 mmHg 93%
    03:00 +14°C° 0 mm 0 mps 618 mmHg 93%
    04:00 +14°C° 0 mm 0 mps 617 mmHg 93%
    05:00 +14°C° 0 mm 0 mps 617 mmHg 93%
    06:00 +18°C° 0 mm 1 mps 618 mmHg 87%
    07:00 +19°C° 0 mm 1 mps 619 mmHg 81%
    08:00 +21°C° 0 mm 1 mps 620 mmHg 75%
    09:00 +23°C° 0 mm 1 mps 620 mmHg 63%
    10:00 +26°C° 0 mm 2 mps 621 mmHg 52%
    11:00 +28°C° 0 mm 2 mps 621 mmHg 41%
    12:00 +28°C° 0 mm 2 mps 621 mmHg 42%
    13:00 +28°C° 0 mm 2 mps 620 mmHg 43%
    14:00 +27°C° 0 mm 2 mps 619 mmHg 44%
    15:00 +26°C° 0.1 mm 2 mps 619 mmHg 50%
    16:00 +25°C° 0.1 mm 2 mps 618 mmHg 56%
    17:00 +24°C° 0.1 mm 2 mps 618 mmHg 62%
    18:00 +22°C° 0.1 mm 1 mps 618 mmHg 69%
    19:00 +20°C° 0.1 mm 1 mps 617 mmHg 76%
    20:00 +16°C° 0.1 mm 0 mps 617 mmHg 84%
    21:00 +16°C° 0 mm 0 mps 618 mmHg 86%
    22:00 +15°C° 0 mm 0 mps 618 mmHg 87%
    23:00 +15°C° 0 mm 0 mps 618 mmHg 89%

    Tomorrow, 14 December, Thursday

    Time Temperature Precipitation Wind Pressure Humidity
    00:00 +14°C° 0 mm 0 mps 618 mmHg 90%
    01:00 +15°C° 0 mm 1 mps 618 mmHg 91%
    02:00 +15°C° 0 mm 1 mps 617 mmHg 91%
    03:00 +15°C° 0 mm 1 mps 617 mmHg 92%
    04:00 +14°C° 0 mm 1 mps 617 mmHg 92%
    05:00 +14°C° 0 mm 1 mps 617 mmHg 93%
    06:00 +16°C° 0 mm 1 mps 618 mmHg 84%
    07:00 +20°C° 0 mm 1 mps 619 mmHg 75%
    08:00 +22°C° 0 mm 1 mps 620 mmHg 66%
    09:00 +24°C° 0 mm 1 mps 621 mmHg 57%
    10:00 +26°C° 0 mm 1 mps 621 mmHg 48%
    11:00 +29°C° 0 mm 1 mps 622 mmHg 39%
    12:00 +28°C° 0 mm 1 mps 621 mmHg 41%
    13:00 +28°C° 0 mm 1 mps 620 mmHg 43%
    14:00 +27°C° 0 mm 2 mps 619 mmHg 44%
    15:00 +26°C° 0 mm 2 mps 619 mmHg 49%
    16:00 +25°C° 0 mm 1 mps 618 mmHg 53%
    17:00 +24°C° 0 mm 1 mps 618 mmHg 58%
    18:00 +22°C° 0.3 mm 1 mps 618 mmHg 65%
    19:00 +20°C° 0.3 mm 1 mps 617 mmHg 73%
    20:00 +16°C° 0.3 mm 0 mps 617 mmHg 80%
    21:00 +16°C° 0.3 mm 0 mps 617 mmHg 81%
    22:00 +16°C° 0.3 mm 1 mps 617 mmHg 83%
    23:00 +16°C° 0.3 mm 1 mps 618 mmHg 85%

    Day after tomorrow, 15 December, Friday

    Time Temperature Precipitation Wind Pressure Humidity
    00:00 +15°C° 0 mm 1 mps 617 mmHg 85%
    01:00 +15°C° 0 mm 1 mps 617 mmHg 85%
    02:00 +15°C° 0 mm 1 mps 616 mmHg 86%
    03:00 +14°C° 0 mm 1 mps 616 mmHg 85%
    04:00 +14°C° 0 mm 1 mps 616 mmHg 85%
    05:00 +14°C° 0 mm 1 mps 616 mmHg 85%
    06:00 +15°C° 0 mm 0 mps 617 mmHg 78%
    07:00 +17°C° 0 mm 0 mps 619 mmHg 72%
    08:00 +19°C° 0 mm 0 mps 620 mmHg 65%
    09:00 +23°C° 0 mm 1 mps 620 mmHg 59%
    10:00 +25°C° 0 mm 1 mps 621 mmHg 53%
    11:00 +27°C° 0 mm 1 mps 621 mmHg 46%
    12:00 +27°C° 0.1 mm 1 mps 620 mmHg 48%
    13:00 +27°C° 0.1 mm 2 mps 619 mmHg 49%
    14:00 +26°C° 0.1 mm 2 mps 619 mmHg 51%
    15:00 +25°C° 0.3 mm 2 mps 618 mmHg 57%
    16:00 +24°C° 0.3 mm 1 mps 617 mmHg 64%
    17:00 +23°C° 0.3 mm 1 mps 617 mmHg 70%
    18:00 +21°C° 0.1 mm 1 mps 617 mmHg 75%
    19:00 +19°C° 0.1 mm 1 mps 617 mmHg 80%
    20:00 +18°C° 0.1 mm 1 mps 617 mmHg 86%
    21:00 +16°C° 0.1 mm 1 mps 617 mmHg 87%
    22:00 +16°C° 0.1 mm 1 mps 617 mmHg 88%
    23:00 +15°C° 0.1 mm 1 mps 617 mmHg 89%

    16 December, Saturday

    Time Temperature Precipitation Wind Pressure Humidity
    00:00 +15°C° 0 mm 1 mps 617 mmHg 89%
    01:00 +15°C° 0 mm 1 mps 616 mmHg 89%
    02:00 +15°C° 0 mm 1 mps 616 mmHg 89%
    03:00 +14°C° 0 mm 1 mps 616 mmHg 89%
    04:00 +14°C° 0 mm 1 mps 616 mmHg 88%
    05:00 +14°C° 0 mm 1 mps 616 mmHg 88%
    06:00 +16°C° 0 mm 1 mps 617 mmHg 82%
    07:00 +16°C° 0 mm 0 mps 618 mmHg 76%
    08:00 +18°C° 0 mm 0 mps 619 mmHg 70%
    09:00 +21°C° 0.1 mm 1 mps 620 mmHg 67%
    10:00 +22°C° 0.1 mm 1 mps 620 mmHg 63%
    11:00 +23°C° 0.1 mm 1 mps 620 mmHg 60%
    12:00 +24°C° 0.6 mm 1 mps 619 mmHg 63%
    13:00 +24°C° 0.6 mm 1 mps 618 mmHg 66%
    14:00 +24°C° 0.6 mm 1 mps 618 mmHg 68%
    15:00 +23°C° 0.5 mm 1 mps 617 mmHg 71%
    16:00 +23°C° 0.5 mm 1 mps 617 mmHg 73%
    17:00 +22°C° 0.5 mm 1 mps 617 mmHg 75%
    18:00 +19°C° 0.1 mm 0 mps 617 mmHg 79%
    19:00 +17°C° 0.1 mm 0 mps 617 mmHg 82%
    20:00 +16°C° 0.1 mm 0 mps 617 mmHg 86%
    21:00 +16°C° 0 mm 0 mps 617 mmHg 87%
    22:00 +15°C° 0 mm 0 mps 617 mmHg 88%
    23:00 +16°C° 0 mm 1 mps 617 mmHg 90%

    17 December, Sunday

    Time Temperature Precipitation Wind Pressure Humidity
    00:00 +15°C° 0 mm 1 mps 617 mmHg 90%
    01:00 +15°C° 0 mm 1 mps 616 mmHg 90%
    02:00 +13°C° 0 mm 0 mps 616 mmHg 91%
    03:00 +13°C° 0 mm 0 mps 616 mmHg 90%
    04:00 +13°C° 0 mm 0 mps 616 mmHg 89%
    05:00 +13°C° 0 mm 0 mps 616 mmHg 88%
    06:00 +15°C° 0 mm 0 mps 617 mmHg 81%
    07:00 +17°C° 0 mm 0 mps 618 mmHg 74%
    08:00 +19°C° 0 mm 0 mps 620 mmHg 67%
    09:00 +23°C° 0.2 mm 1 mps 620 mmHg 61%
    10:00 +25°C° 0.2 mm 1 mps 620 mmHg 56%
    11:00 +27°C° 0.2 mm 1 mps 620 mmHg 50%
    12:00 +26°C° 0.6 mm 1 mps 619 mmHg 55%
    13:00 +26°C° 0.6 mm 1 mps 618 mmHg 59%
    14:00 +25°C° 0.6 mm 2 mps 617 mmHg 64%
    15:00 +24°C° 0.8 mm 1 mps 617 mmHg 69%
    16:00 +23°C° 0.8 mm 1 mps 617 mmHg 74%
    17:00 +22°C° 0.8 mm 1 mps 617 mmHg 79%
    18:00 +21°C° 0.4 mm 1 mps 617 mmHg 82%
    19:00 +17°C° 0.4 mm 0 mps 617 mmHg 85%
    20:00 +16°C° 0.4 mm 0 mps 617 mmHg 89%
    21:00 +16°C° 0.2 mm 0 mps 617 mmHg 90%
    22:00 +15°C° 0.2 mm 0 mps 617 mmHg 91%
    23:00 +15°C° 0.2 mm 0 mps 617 mmHg 92%

    18 December, Monday

    Time Temperature Precipitation Wind Pressure Humidity
    00:00 +15°C° 0 mm 0 mps 617 mmHg 93%
    01:00 +14°C° 0 mm 0 mps 616 mmHg 93%
    02:00 +14°C° 0 mm 0 mps 616 mmHg 93%
    03:00 +14°C° 0 mm 0 mps 616 mmHg 92%
    04:00 +14°C° 0 mm 0 mps 617 mmHg 91%
    05:00 +15°C° 0 mm 0 mps 617 mmHg 90%
    06:00 +16°C° 0 mm 0 mps 618 mmHg 86%
    07:00 +17°C° 0 mm 0 mps 618 mmHg 82%
    08:00 +19°C° 0 mm 0 mps 619 mmHg 77%
    09:00 +22°C° 0.2 mm 1 mps 620 mmHg 69%
    10:00 +24°C° 0.2 mm 1 mps 620 mmHg 61%
    11:00 +26°C° 0.2 mm 2 mps 620 mmHg 53%
    12:00 +26°C° 0.2 mm 2 mps 619 mmHg 54%
    13:00 +26°C° 0.2 mm 2 mps 619 mmHg 54%
    14:00 +26°C° 0.2 mm 2 mps 618 mmHg 55%
    15:00 +25°C° 0.5 mm 2 mps 617 mmHg 63%
    16:00 +23°C° 0.5 mm 2 mps 617 mmHg 70%
    17:00 +22°C° 0.5 mm 1 mps 616 mmHg 77%
    18:00 +21°C° 0.7 mm 1 mps 617 mmHg 81%
    19:00 +18°C° 0.7 mm 0 mps 617 mmHg 85%
    20:00 +16°C° 0.7 mm 0 mps 617 mmHg 88%
    21:00 +16°C° 0.3 mm 0 mps 617 mmHg 89%
    22:00 +16°C° 0.3 mm 0 mps 617 mmHg 89%
    23:00 +16°C° 0.3 mm 0 mps 617 mmHg 90%
    Show more